User: anonymous   Login
Location: Unspecified
(0.0000°N, 0.0000°E)
Time: 18:26:10
(UTC+00:00)
Language:

CORVUS BC1 - Orbit

View from above orbital plane
View from above orbital plane
View from above satellite
View from above satellite

Ground track
Ground track

The orbit data is extracted from the following two-line orbital elements,

1 42847U 17042Y   18049.20074718  .00000218  00000-0  26896-4 0  9996
2 42847  97.6068 316.3375 0008073 226.3058 133.7493 14.91860385 32623
Epoch (UTC): 18 February 2018 04:49:04
Eccentricity: 0.0008073
inclination: 97.6068°
perigee height: 586 km
apogee height: 598 km
right ascension of ascending node: 316.3375°
argument of perigee: 226.3058°
revolutions per day: 14.91860385
mean anomaly at epoch: 133.7493°
orbit number at epoch: 3262

The dashed part of the orbit path shows where the satellite is in the earth's shadow,  

DLR